Minneapolis-St Paul International/Wold-Chamberlain Airport
KMSP : now visible

Airfield :











YOU CAN JOIN US ON...

 
LOGIN :

Register | Disclaimer

   EN    FR    IT 

 









Legend :    VFR   Marginal VFR   IFR   Intensive IFR   Very Intensive IFR
Visi :
Ceiling :
>= 8 km
>= 3000ft
5 to 8 km
1000 to 3000 ft
1500m to 5 km
500 to 1000 ft
800 to 1500m
200 to 500 ft
< 800m
< 200 ft
Symbols :   Thunderstorms  Fog  Heavy snow  Heavy precipitations  Wind > 20 kt






- Airport Elevation : 841 ft
- IATA code : MSP


KMSP - Minneapolis-St Paul International/Wold-Chamberlain

CURRENT METAR :
  • 240753Z 33007KT 10SM CLR M04/M08 A3034 RMK AO2 SLP287 T10441078

EXPIRED METARs :
  • 240653Z 31005KT 10SM CLR M04/M07 A3035 RMK AO2 SLP290 T10441072
  • 240553Z 31007KT 10SM CLR M04/M07 A3035 RMK AO2 SLP291 T10441072 10011 21044 400221044 50002

TAF KMSP
Valid from the 24 at 09:00 until the 25 at 12:00 UTC


240847Z 2409/2512 31006KT P6SM OVC250
FM241200 30005KT P6SM OVC120
FM242000 34004KT P6SM OVC080
FM250700 02003KT 3SM -SN BR OVC020
KZMP FIR / North America



MET'MAP, your aeronautical weather chart ! - Copyright ORBIFLY December 2007 - Disclaimer

ORBIFLY MET'MAP TEAM :

Programming & Development : Alexandra Zaïnal
Concept & original design : Baudouin d'Aumeries
Assistance for programming : Marc-Olivier Méhu
Technical & hardware support : Manuel Goepfert

Contact : metmap@orbifly.com




SOURCES & CREDITS :

   NOAA       Earth
Advisory